"Pseudo-MPEC" for N00esca

Created 2019 May 24 15:07:15 UT using Find_Orb

Click here for an explanation of pseudo-MPECs

 
 Astrometry: 
     N00esca  S2019 05 07+LQYt.ac/dqY2infZ'.-5S1`y1S+apSFB^FAZV+Qiq@^]UeEbTxNC51
     N00esca  s2019 05 07;Q9H\Ti`NWtGk*RBtI=2arw,4++F6UHs/fb0'jj8?8)ID%CHBU/nC51
     N00esca  S2019 05 07,;]8y87/ad'(bqs6e)9/c71_l@TS6kkjD]'SxkLZrTBC'C3lLVicC51
     N00esca  s2019 05 07AO0b]cR(.BLEJZDo`$AnvCQB$XRmAtv+63Hh;00BV4VT^2%02D`0C51
     N00esca  S2019 05 08O]4-5[)cX4yk]AaG,)W@_1$Uw^e0(@1c.?RiHp!\oGsk.uwkRq*dC51
     N00esca  s2019 05 08v_aZ$K*EMGSFTwnJR+syXdaS;,,36JcOewT7m86@:DAnu5Mt7'SVC51
     N00esca  S2019 05 08h`qOl^epGo\DIM7;c2UaS#\BA0=3kJCY0nbWSNMCcyF6j;TVq;ctC51
     N00esca  s2019 05 08R,p#]-'fkt)HMWP(T9[TP%o^\@yEo+Q?G.T5(u'$)*5YfiM!wWF;C51
     N00esca  S2019 05 08bAn.69UGWk9wro!VS65sYbt0s!04=Q)%g]?v*u-,f]9p8o#(*waGC51
     N00esca  s2019 05 08qKtL\/j3loUOh+Yc9@PmWi=p^AxB:C5e!',5s!DjO5-BU]6gS]N5C51
     N00esca  S2019 05 08alO^\oVxp]*_0_)Astrometry2)3H7/WtyDUS[s'q4Ns0I)b@AFYC51
     N00esca  s2019 05 08Q+=5P@9Q9PUFe)M\=U76?`@'ZaM:l3Wda*(6\mf89QAAh8vYO?ICC51
     N00esca  S2019 05 08dKn0^Ku`fYB@o$45p'AkHc*yBY;a\8;F=/0U4+;Te7O4=$2DE$G.C51
     N00esca  s2019 05 08.F*A;E#-a#KJ39svG^3vLO9Pb^O@_7N+AoAL-\OX,redacted;9yC51
     N00esca  S2019 05 0855GMCR7*nO444K?G1sB]$f9d(RdAekC.EOE*wtebC'[D8TfO[D;tC51
     N00esca  s2019 05 08/xsG8aDFaNFkKtc7],r+1MK:.p0\%.RJ=jeajLij=;e,g$tLi!w^C51
     N00esca  S2019 05 08cmnEL;$XHkt9rc]5Xp$7CScfT`J.r=ZtY_TkaFer)^-a:WZ?n#L1C51
     N00esca  s2019 05 08CZrHRZ@p:o)yINaIn;AwS)8n:rgcOmtsMFuZ;*Ad3th;57/Q3,^pC51
     N00esca  S2019 05 08y,0qMsG@ntH:I\Af)S6qnLb$WudokcV5)O6$CdL83.3QN)Z'?+uEC51
     N00esca  s2019 05 08nyVCLi'(EeN,iLpo)#Q[QZo2SU.SIa/F%5iaqh#]=0LCZBadyly+C51
     N00esca |C2019 05 15n=YIKfclickL3vMleS]+1@ulEUh,?hxs$g676$=)Tju?`OE`vG[i807
     N00esca |C2019 05 15FjW,0y^(LocT`Y2#b@G7_-here@-8T;[U,maplFx?bH\p.o(e1Hf807
     N00esca |C2019 05 15HbMi$ZIpi?RD%y+uEQMdnud)ImHZo4)1Livu`enl/sEonjB/n=/Y807
     N00esca |C2019 05 15!Y#mOlva.P*RjJF63@[(4L)05Q(D0]W6`%fRU'`X1E0IVl\P(??.807
     N00esca |C2019 05 15OCS1AdnST/Xfort;3!VE3!UiJf5`=%5K'?n[PjyyCS.!NIh)Y44C807
     N00esca |C2019 05 15_^/uy8$;`ZfAeVtdy'LTUOw9/1UCT;\j[x(9mFyN3tmCnWCv)Q+X807
     N00esca KC2019 05 15NDg9T1HIG@9(uA1Bu9/o,RcOnF'SY/RF#,1K/XkH:cC6t?eh(Zt[291
     N00esca KC2019 05 15R8d^ET=U`2F)]U(WVETF?t1-F\7RtS2Ga*VGHhmQ%GaYX,3$ajg6291
     N00esca KC2019 05 15IUBw1u0Y6:i7X*G7`oy?M_-+explanationenuSfeVB.TS]dftXV291
     N00esca KC2019 05 211thpuY0j2*qr7W]_RjLrGHZ!Uq?vEQRW%t'-kE@u8fsO@,RgTfBc291
     N00esca KC2019 05 21];_)lk:K?uKMfJmbA+(:Z.t:AHl=2PXq3$=M)\//hY*a3oBACv6J291
     N00esca KC2019 05 23.41747522 19 06.69 +17 11 10.8    ~5NB7 22.2 GVNEOCPH01
     N00esca KC2019 05 23.42670922 19 08.18 +17 12 18.8    ~5NB7 21.9 GVNEOCPH01
     N00esca KC2019 05 23.43409222 19 09.35 +17 13 13.5    ~5NB7 22.1 GVNEOCPH01
     N00esca KC2019 05 23.44243522 19 10.69 +17 14 15.4    ~5NB7 22.0 GVNEOCPH01
     N00esca KC2019 05 24.40352022 21 50.86 +19 09 50.7    ~5OAb 21.7 GVNEOCPH01
     N00esca KC2019 05 24.41211322 21 52.21 +19 10 51.7    ~5OAb 22.2 GVNEOCPH01
     N00esca KC2019 05 24.42375222 21 54.04 +19 12 14.1    ~5OAb 22.0 GVNEOCPH01
     N00esca KC2019 05 24.42972922 21 54.98 +19 12 56.3    ~5OAb 21.7 GVNEOCPH01

Station data:
(291) LPL/Spacewatch II  (N31.961669 W111.599905)  US/Arizona.  Observers J.
   V. Scotti, R. S. McMillan. 1.8-m f/2.7 reflector + CCD.
(807) Cerro Tololo Observatory, La Serena  (S30.169136 W70.805900)  Chile.
(C51) WISE. Measurers A. Mainzer, E. Wright, J. Bauer, T. Grav, J. Dailey, J.
   Masiero, R. Cutri, R. McMillan, R. Walker.
(H01) Magdalena Ridge Observatory, Socorro  (N33.984833 W107.189333)  US/New
   Mexico.  Observers W. H. Ryan, E. V. Ryan. Measurer W. H. Ryan. 2.4-m
   f/8.9 reflector + CCD.

Orbital elements:  N00esca
   Perihelion 2019 May 30.882539 +/- 0.00918 TT = 21:10:51 (JD 2458634.382539)
Epoch 2019 May 24.0 TT = JDT 2458627.5   Earth MOID: 0.0124   AutoNEOCP
M 358.03371238 +/- 0.006            (J2000 ecliptic)
n   0.28569219 +/- 0.000601         Peri.   23.77787 +/- 0.007
a   2.28316414 +/- 0.0032           Node   242.98009 +/- 0.006
e   0.5644644 +/- 0.000602          Incl.   28.24828 +/- 0.011
P   3.45                   H 22.1   G  0.15   U  7.8  
q 0.99439914 +/- 2e-5    Q 3.57192915 +/- 0.0064
From 29 observations 2019 May 7-24; mean residual 0".61
Residuals in arcseconds: 
190507 C51  1.4+  .03-    190515 807  .14-  .44-    190521 291  .12-  .07-    
190507 C51  .24+  1.4-    190515 807  .03-  .14-    190523 H01  .39-  .42+    
190508 C51  1.0+  .43-    190515 807  .32-  .17-    190523 H01  .26-  .17-    
190508 C51  .27+  .84-    190515 807  .27-  .09-    190523 H01  .41-  .27-    
190508 C51  .58+  .38+    190515 807  .04+  .21-    190523 H01  .28-  .26-    
190508 C51  1.0-  .42+    190515 807  .24+  .52-    190524 H01  .12+  .01+    
190508 C51  1.2-  .09-    190515 291  .05+  .06-    190524 H01  .01+  .03+    
190508 C51  .17-  .46+    190515 291  .07-  .02+    190524 H01  .02-  .10-    
190508 C51  .06-  2.6+    190515 291  .30-  .91+    190524 H01  .01+  .25-    
190508 C51  .33+  .61-    190521 291  1.2+  .55+    

Ephemerides (geocentric):
Date (UTC) HH   RA              Dec         delta   r     elong  mag " sig PA
---- -- -- --  -------------   -----------  ------ ------ -----  --- ---- ---
2019 05 24 15  22 22 25.744   +19 35 56.08  .28157 0.9977  78.9 22.3 .115  99
2019 05 24 16  22 22 32.578   +19 40 46.53  .28185 0.9977  78.9 22.3 .117  99
2019 05 24 17  22 22 39.406   +19 45 36.40  .28212 0.9976  78.9 22.3 .120  99
2019 05 24 18  22 22 46.228   +19 50 25.69  .28240 0.9976  78.9 22.3 .123  98
2019 05 24 19  22 22 53.046   +19 55 14.40  .28268 0.9975  78.9 22.3 .126  98
2019 05 24 20  22 22 59.857   +20 00 02.52  .28296 0.9975  78.9 22.3 .129  98
2019 05 24 21  22 23 06.664   +20 04 50.07  .28324 0.9974  78.9 22.3 .132  98
2019 05 24 22  22 23 13.465   +20 09 37.03  .28352 0.9974  78.8 22.3 .135  98
2019 05 24 23  22 23 20.260   +20 14 23.42  .28380 0.9974  78.8 22.3 .138  98
2019 05 25 00  22 23 27.050   +20 19 09.23  .28409 0.9973  78.8 22.3 .141  98
2019 05 25 01  22 23 33.835   +20 23 54.47  .28437 0.9973  78.8 22.3 .144  98
2019 05 25 02  22 23 40.615   +20 28 39.12  .28465 0.9972  78.8 22.3 .147  97
2019 05 25 03  22 23 47.389   +20 33 23.21  .28493 0.9972  78.8 22.3 .150  97
2019 05 25 04  22 23 54.158   +20 38 06.71  .28522 0.9972  78.7 22.3 .153  97
2019 05 25 05  22 24 00.922   +20 42 49.65  .28550 0.9971  78.7 22.3 .156  97
2019 05 25 06  22 24 07.680   +20 47 32.01  .28579 0.9971  78.7 22.3 .159  97
2019 05 25 07  22 24 14.433   +20 52 13.80  .28607 0.9970  78.7 22.3 .162  97
2019 05 25 08  22 24 21.181   +20 56 55.02  .28636 0.9970  78.7 22.3 .165  97
2019 05 25 09  22 24 27.924   +21 01 35.66  .28664 0.9970  78.7 22.3 .168  97
2019 05 25 10  22 24 34.661   +21 06 15.74  .28693 0.9969  78.7 22.4 .172  97
2019 05 25 11  22 24 41.393   +21 10 55.25  .28722 0.9969  78.6 22.4 .175  97
2019 05 25 12  22 24 48.120   +21 15 34.19  .28750 0.9968  78.6 22.4 .178  96
2019 05 25 13  22 24 54.842   +21 20 12.57  .28779 0.9968  78.6 22.4 .181  96
2019 05 25 14  22 25 01.559   +21 24 50.37  .28808 0.9968  78.6 22.4 .184  96
2019 05 25 15  22 25 08.270   +21 29 27.62  .28837 0.9967  78.6 22.4 .187  96
2019 05 25 16  22 25 14.977   +21 34 04.29  .28866 0.9967  78.6 22.4 .191  96
2019 05 25 17  22 25 21.678   +21 38 40.41  .28895 0.9967  78.6 22.4 .194  96
2019 05 25 18  22 25 28.374   +21 43 15.96  .28923 0.9966  78.5 22.4 .197  96
2019 05 25 19  22 25 35.065   +21 47 50.95  .28952 0.9966  78.5 22.4 .200  96
2019 05 25 20  22 25 41.751   +21 52 25.37  .28982 0.9965  78.5 22.4 .204  96
2019 05 25 21  22 25 48.432   +21 56 59.24  .29011 0.9965  78.5 22.4 .207  96
2019 05 25 22  22 25 55.108   +22 01 32.55  .29040 0.9965  78.5 22.4 .210  96
2019 05 25 23  22 26 01.778   +22 06 05.29  .29069 0.9964  78.5 22.4 .214  96
2019 05 26 00  22 26 08.444   +22 10 37.48  .29098 0.9964  78.5 22.4 .217  96
2019 05 26 01  22 26 15.105   +22 15 09.12  .29127 0.9964  78.5 22.4 .221  95
2019 05 26 02  22 26 21.760   +22 19 40.20  .29157 0.9963  78.4 22.4 .224  95
2019 05 26 03  22 26 28.411   +22 24 10.72  .29186 0.9963  78.4 22.4 .227  95
2019 05 26 04  22 26 35.057   +22 28 40.68  .29216 0.9963  78.4 22.4 .231  95
2019 05 26 05  22 26 41.698   +22 33 10.10  .29245 0.9962  78.4 22.4 .234  95
2019 05 26 06  22 26 48.334   +22 37 38.96  .29274 0.9962  78.4 22.4 .238  95
2019 05 26 07  22 26 54.964   +22 42 07.27  .29304 0.9962  78.4 22.4 .241  95
2019 05 26 08  22 27 01.590   +22 46 35.03  .29334 0.9961  78.4 22.4 .245  95
2019 05 26 09  22 27 08.211   +22 51 02.24  .29363 0.9961  78.4 22.4 .248  95
2019 05 26 10  22 27 14.827   +22 55 28.90  .29393 0.9961  78.3 22.4 .252  95
2019 05 26 11  22 27 21.439   +22 59 55.01  .29422 0.9961  78.3 22.4 .255  95
2019 05 26 12  22 27 28.045   +23 04 20.58  .29452 0.9960  78.3 22.4 .259  95
2019 05 26 13  22 27 34.646   +23 08 45.60  .29482 0.9960  78.3 22.4 .262  95
2019 05 26 14  22 27 41.243   +23 13 10.07  .29512 0.9960  78.3 22.4 .266  95